Regional Weather Roundup
Issued by NWS Newport/Morehead, NC

Current Version | Previous Version | Graphics & Text | Print | Product List | Glossary Off
Versions: 1 2 3 4 5 6 7 8 9 10 11 12 13 14 15 16 17 18 19 20 21 22 23 24 25 26 27 28 29 30 31 32 33 34 35 36 37 38 39 40 41 42 43 44 45 46 47 48 49 50

000
ASUS42 KMHX 250222
RWRMHX
WEATHER ROUNDUP FOR EASTERN NORTH CAROLINA
NATIONAL WEATHER SERVICE NEWPORT/MOREHEAD CITY NC
1000 PM EDT THU JUL 24 2014

NOTE: "FAIR" INDICATES FEW OR NO CLOUDS BELOW 12,000 FEET
WITH NO SIGNIFICANT WEATHER AND/OR OBSTRUCTIONS TO VISIBILITY

NCZ015>017-031-032-045>047-102-103-250300-
NORTH COAST

CITY           SKY/WX    TMP DP  RH WIND       PRES   REMARKS
EDENTON        RAIN      71  69  92 NE7       29.93S
ELIZABETH CITY HVY RAIN  70  66  88 N29G40    29.96R FOG
KITTY HAWK     LGT RAIN  73  71  93 CALM      29.90S
MANTEO         NOT AVBL

$$

NCZ045>047-081-094-103-104-250300-
CENTRAL COAST

CITY           SKY/WX    TMP DP  RH WIND       PRES   REMARKS
FRISCO         CLOUDY    75  73  93 W13G20    29.90R
SWANQUARTER      N/A     75 N/A N/A NW5       29.88R

$$

NCZ095-097-098-100-101-250300-
SOUTHERN COAST

CITY           SKY/WX    TMP DP  RH WIND       PRES   REMARKS
BEAUFORT       PTCLDY    77  73  87 S8        29.89R
CEDAR ISLAND     N/A     73 N/A N/A SW1       29.94R
JACKSONVILLE   TSTM      76  74  93 VRB6      29.88F FOG
NEWPORT        NOT AVBL
PINEY ISLAND   MOCLDY    75  74  96 CALM      29.89R
WILMINGTON     TSTM      75  72  90 SE7       29.89R FOG


$$

NCZ011>013-027>030-043-044-078>080-089-090>093-098-250300-
COASTAL PLAIN

CITY           SKY/WX    TMP DP  RH WIND       PRES   REMARKS
AHOSKIE        CLOUDY    69  67  93 CALM      29.91F
CLINTON        LGT RAIN  76  76  98 N5        29.93R
ELIZABETHTOWN  CLOUDY    75  74  97 S5        29.90S
GOLDSBORO      LGT RAIN  70  70 100 NE8       29.93R FOG
GREENVILLE     MOCLDY    68  66  94 NE8       29.95F
HAVELOCK       NOT AVBL
KENANSVILLE    LGT RAIN  74  72  93 N7        29.93R
KINSTON        LGT RAIN  69  68  98 N8G16     29.96R
NEW BERN       PTCLDY    74  71  91 CALM      29.91R
RICHLANDS      MOCLDY    73  70  88 CALM      29.89S
ROANOKE RAPIDS NOT AVBL
ROCKY MOUNT    LGT RAIN  68  66  93 NE7       29.95R
WASHINGTON     CLOUDY    68  66  95 NE7       29.95S
WHITEVILLE     LGT RAIN  73  71  93 CALM      29.90S

$$

AMZ130-135-150-152-154-156-158-170-250-252-270-ANZ085-086-088-633-658-670-250300-
MARINE OBSERVATIONS

STATION/POSITION TIME  TEMP    WIND        PRES    WAVE   SWELL
                       AIR SEA DIR/SP/G            HT/PER HT/PER
                 (UTC) (F)     (DEG/KT/KT) (MB)    (FT/S) (FT/S)
CHESAPEAKE LIGHT NOT AVBL
BUOY 44014       0200   76 78   50/  4/  6 1012.2    3/ 7   3/ 7
DUCK             0200   76 76   20/  5/  6 1012.6
2E DUCK          0200                        N/A     1/ 8
OREGON INLET     0200   76 82   50/  3/  5 1012.8
BUOY 44095       0200      78                N/A     3/ 7
20E OREGON INLET NOT AVBL
HATTERAS CG      0200   75 81  230/  7/ 12 1012.7
DIAMOND BUOY     0200          VRB 19/ 23  1011.7    4/ 5   2/ 9
CAPE LOOKOUT     0200   77     190/ 11/ 12 1012.1
BEAUFORT LAB     0200   78 81  200/ 12/ 13 1011.9
30 SE NEW RIVER  0200   79 81  190/  6/  8 1012.9    5/ 7   3/ 7
5 SE WRIGHTSVILL 0200   79 81  220/ 14/ 16   N/A
BUOY 41002       0146   82 82  230/ 19/ 23 1016.5    5/ 6   2/ 8
BUOY 41004       0200   83 83  210/ 17/ 21 1012.8    4/ 5   2/ 7

$$



USA.gov is the U.S. government's official web portal to all federal, state and local government web resources and services.